Location: Kuffner-Sternwarte
(48.2130°N, 16.2960°E)
Time: 11:27:03
(UTC+01:00)

ISS - Pass Details

Date: 26 February 2019
Orbit: 406 x 411 km, 51.6° (Epoch: 22 March)

Event Time Altitude Azimuth Distance (km) Brightness Sun altitude
Exits shadow 05:33:35 - 218° (SW) 1,499 -1.3 -12.3°
Reaches altitude 10° 05:33:41 10° 217° (SW) 1,460 -1.4 -12.3°
Maximum altitude 05:36:46 39° 147° (SSE) 625 -2.6 -11.7°
Drops below altitude 10° 05:39:52 10° 77° (ENE) 1,469 0.4 -11.2°
Sets 05:42:01 0° 69° (ENE) 2,333 1.5 -10.9°
